date,time,SUV Intensity [MED/Hr],UV Index,Daily total [MED],Since Last [MED]
28/05/2023,00:02:17,-0.000,0.0,0.0,0.0
28/05/2023,00:03:17,-0.001,0.0,0.0,0.0
28/05/2023,00:04:17,0.000,0.0,0.0,0.0
28/05/2023,00:05:17,0.000,0.0,0.0,0.0
28/05/2023,00:06:17,-0.001,0.0,0.0,0.0
28/05/2023,00:07:17,-0.001,0.0,0.0,0.0
28/05/2023,00:08:17,0.000,0.0,0.0,0.0
28/05/2023,00:09:17,0.000,0.0,0.0,0.0
28/05/2023,00:10:17,-0.001,0.0,0.0,0.0
28/05/2023,00:11:17,0.001,0.0,0.0,0.0
28/05/2023,00:12:17,0.000,0.0,0.0,0.0
28/05/2023,00:13:17,-0.000,0.0,0.0,0.0
28/05/2023,00:14:17,0.000,0.0,0.0,0.0
28/05/2023,00:15:17,0.000,0.0,0.0,0.0
28/05/2023,00:16:17,0.000,0.0,0.0,0.0
28/05/2023,00:17:17,0.000,0.0,0.0,0.0
28/05/2023,00:18:17,-0.000,0.0,0.0,0.0
28/05/2023,00:19:17,-0.000,0.0,0.0,0.0
28/05/2023,00:20:17,0.000,0.0,0.0,0.0
28/05/2023,00:21:17,0.000,0.0,0.0,0.0
28/05/2023,00:22:17,0.000,0.0,0.0,0.0
28/05/2023,00:23:17,-0.000,0.0,0.0,0.0
28/05/2023,00:24:17,0.000,0.0,0.0,0.0
28/05/2023,00:25:17,0.001,0.0,0.0,0.0
28/05/2023,00:26:17,-0.001,0.0,0.0,0.0
28/05/2023,00:27:17,0.000,0.0,0.0,0.0
28/05/2023,00:28:16,0.001,0.0,0.0,0.0
28/05/2023,00:29:18,0.000,0.0,0.0,0.0
28/05/2023,00:30:17,0.000,0.0,0.0,0.0
28/05/2023,00:31:17,-0.001,0.0,0.0,0.0
28/05/2023,00:32:17,-0.001,0.0,0.0,0.0
28/05/2023,00:33:17,-0.000,0.0,0.0,0.0
28/05/2023,00:34:17,0.000,0.0,0.0,0.0
28/05/2023,00:35:17,0.001,0.0,0.0,0.0
28/05/2023,00:36:17,0.001,0.0,0.0,0.0
28/05/2023,00:37:17,0.000,0.0,0.0,0.0
28/05/2023,00:38:17,0.000,0.0,0.0,0.0
28/05/2023,00:39:17,0.000,0.0,0.0,0.0
28/05/2023,00:40:17,0.001,0.0,0.0,0.0
28/05/2023,00:41:17,0.001,0.0,0.0,0.0
28/05/2023,00:42:17,0.000,0.0,0.0,0.0
28/05/2023,00:43:17,0.000,0.0,0.0,0.0
28/05/2023,00:44:17,0.000,0.0,0.0,0.0
28/05/2023,00:45:17,0.000,0.0,0.0,0.0
28/05/2023,00:46:17,0.000,0.0,0.0,0.0
28/05/2023,00:47:17,0.000,0.0,0.0,0.0
28/05/2023,00:48:17,0.001,0.0,0.0,0.0
28/05/2023,00:49:17,0.000,0.0,0.0,0.0
28/05/2023,00:50:17,0.000,0.0,0.0,0.0
28/05/2023,00:51:17,0.000,0.0,0.0,0.0
28/05/2023,00:52:17,0.000,0.0,0.0,0.0
28/05/2023,00:53:17,0.000,0.0,0.0,0.0
28/05/2023,00:54:17,0.001,0.0,0.0,0.0
28/05/2023,00:55:17,0.000,0.0,0.0,0.0
28/05/2023,00:56:17,0.000,0.0,0.0,0.0
28/05/2023,00:57:17,0.000,0.0,0.0,0.0
28/05/2023,00:58:17,0.001,0.0,0.0,0.0
28/05/2023,00:59:16,0.001,0.0,0.0,0.0
28/05/2023,01:00:17,0.001,0.0,0.0,0.0
28/05/2023,01:01:17,0.001,0.0,0.0,0.0
28/05/2023,01:02:17,0.001,0.0,0.0,0.0
28/05/2023,01:03:17,0.001,0.0,0.0,0.0
28/05/2023,01:04:17,0.000,0.0,0.0,0.0
28/05/2023,01:05:17,0.000,0.0,0.0,0.0
28/05/2023,01:06:17,-0.000,0.0,0.0,0.0
28/05/2023,01:07:17,0.000,0.0,0.0,0.0
28/05/2023,01:08:17,0.001,0.0,0.0,0.0
28/05/2023,01:09:17,0.001,0.0,0.0,0.0
28/05/2023,01:10:17,-0.000,0.0,0.0,0.0
28/05/2023,01:11:17,0.000,0.0,0.0,0.0
28/05/2023,01:12:17,-0.000,0.0,0.0,0.0
28/05/2023,01:13:17,0.001,0.0,0.0,0.0
28/05/2023,01:14:17,0.001,0.0,0.0,0.0
28/05/2023,01:15:17,0.001,0.0,0.0,0.0
28/05/2023,01:16:17,0.002,0.0,0.0,0.0
28/05/2023,01:17:17,0.000,0.0,0.0,0.0
28/05/2023,01:18:17,0.001,0.0,0.0,0.0
28/05/2023,01:19:17,0.001,0.0,0.0,0.0
28/05/2023,01:20:17,0.000,0.0,0.0,0.0
28/05/2023,01:21:17,0.001,0.0,0.0,0.0
28/05/2023,01:22:17,-0.000,0.0,0.0,0.0
28/05/2023,01:23:17,-0.000,0.0,0.0,0.0
28/05/2023,01:24:17,-0.001,0.0,0.0,0.0
28/05/2023,01:25:18,0.001,0.0,0.0,0.0
28/05/2023,01:26:17,0.001,0.0,0.0,0.0
28/05/2023,01:27:17,0.001,0.0,0.0,0.0
28/05/2023,01:28:17,0.001,0.0,0.0,0.0
28/05/2023,01:29:17,0.001,0.0,0.0,0.0
28/05/2023,01:30:17,0.001,0.0,0.0,0.0
28/05/2023,01:31:18,-0.000,0.0,0.0,0.0
28/05/2023,01:32:17,0.001,0.0,0.0,0.0
28/05/2023,01:33:17,0.001,0.0,0.0,0.0
28/05/2023,01:34:17,-0.000,0.0,0.0,0.0
28/05/2023,01:35:17,0.001,0.0,0.0,0.0
28/05/2023,01:36:17,0.001,0.0,0.0,0.0
28/05/2023,01:37:17,0.001,0.0,0.0,0.0
28/05/2023,01:38:17,0.001,0.0,0.0,0.0
28/05/2023,01:39:17,-0.000,0.0,0.0,0.0
28/05/2023,01:40:18,0.001,0.0,0.0,0.0
28/05/2023,01:41:16,0.001,0.0,0.0,0.0
28/05/2023,01:42:17,0.001,0.0,0.0,0.0
28/05/2023,01:43:17,0.001,0.0,0.0,0.0
28/05/2023,01:44:17,0.001,0.0,0.0,0.0
28/05/2023,01:45:18,0.002,0.0,0.0,0.0
28/05/2023,01:46:17,0.001,0.0,0.0,0.0
28/05/2023,01:47:17,0.002,0.0,0.0,0.0
28/05/2023,01:48:18,0.001,0.0,0.0,0.0
28/05/2023,01:49:17,0.001,0.0,0.0,0.0
28/05/2023,01:50:17,0.000,0.0,0.0,0.0
28/05/2023,01:51:18,0.001,0.0,0.0,0.0
28/05/2023,01:52:18,0.002,0.0,0.0,0.0
28/05/2023,01:53:17,0.001,0.0,0.0,0.0
28/05/2023,01:54:17,0.001,0.0,0.0,0.0
28/05/2023,01:55:17,0.001,0.0,0.0,0.0
28/05/2023,01:56:17,0.001,0.0,0.0,0.0
28/05/2023,01:57:17,-0.000,0.0,0.0,0.0
28/05/2023,01:58:17,0.002,0.0,0.0,0.0
28/05/2023,01:59:17,0.001,0.0,0.0,0.0
28/05/2023,02:00:18,0.001,0.0,0.0,0.0
28/05/2023,02:01:17,0.000,0.0,0.0,0.0
28/05/2023,02:02:17,0.001,0.0,0.0,0.0
28/05/2023,02:03:17,0.001,0.0,0.0,0.0
28/05/2023,02:04:17,0.001,0.0,0.0,0.0
28/05/2023,02:05:17,0.001,0.0,0.0,0.0
28/05/2023,02:06:17,0.001,0.0,0.0,0.0
28/05/2023,02:07:17,0.001,0.0,0.0,0.0
28/05/2023,02:08:17,0.001,0.0,0.0,0.0
28/05/2023,02:09:17,0.001,0.0,0.0,0.0
28/05/2023,02:10:17,0.001,0.0,0.0,0.0
28/05/2023,02:11:17,0.001,0.0,0.0,0.0
28/05/2023,02:12:17,0.002,0.0,0.0,0.0
28/05/2023,02:13:17,-0.000,0.0,0.0,0.0
28/05/2023,02:14:17,0.001,0.0,0.0,0.0
28/05/2023,02:15:17,0.002,0.0,0.0,0.0
28/05/2023,02:16:17,0.001,0.0,0.0,0.0
28/05/2023,02:17:18,0.001,0.0,0.0,0.0
28/05/2023,02:18:17,0.001,0.0,0.0,0.0
28/05/2023,02:19:17,0.001,0.0,0.0,0.0
28/05/2023,02:20:17,0.001,0.0,0.0,0.0
28/05/2023,02:21:17,0.001,0.0,0.0,0.0
28/05/2023,02:22:17,0.001,0.0,0.0,0.0
28/05/2023,02:23:17,0.001,0.0,0.0,0.0
28/05/2023,02:24:18,-0.000,0.0,0.0,0.0
28/05/2023,02:25:17,0.000,0.0,0.0,0.0
28/05/2023,02:26:18,-0.000,0.0,0.0,0.0
28/05/2023,02:27:18,0.001,0.0,0.0,0.0
28/05/2023,02:28:17,0.000,0.0,0.0,0.0
28/05/2023,02:29:18,0.002,0.0,0.0,0.0
28/05/2023,02:30:18,0.001,0.0,0.0,0.0
28/05/2023,02:31:18,-0.000,0.0,0.0,0.0
28/05/2023,02:32:17,0.001,0.0,0.0,0.0
28/05/2023,02:33:17,0.001,0.0,0.0,0.0
28/05/2023,02:34:17,0.001,0.0,0.0,0.0
28/05/2023,02:35:17,-0.000,0.0,0.0,0.0
28/05/2023,02:36:17,-0.000,0.0,0.0,0.0
28/05/2023,02:37:17,0.002,0.0,0.0,0.0
28/05/2023,02:38:17,0.001,0.0,0.0,0.0
28/05/2023,02:39:17,0.001,0.0,0.0,0.0
28/05/2023,02:40:17,0.001,0.0,0.0,0.0
28/05/2023,02:41:17,-0.000,0.0,0.0,0.0
28/05/2023,02:42:18,0.001,0.0,0.0,0.0
28/05/2023,02:43:18,0.001,0.0,0.0,0.0
28/05/2023,02:44:18,0.001,0.0,0.0,0.0
28/05/2023,02:45:17,0.002,0.0,0.0,0.0
28/05/2023,02:46:17,0.001,0.0,0.0,0.0
28/05/2023,02:47:17,0.001,0.0,0.0,0.0
28/05/2023,02:48:18,0.001,0.0,0.0,0.0
28/05/2023,02:49:17,-0.000,0.0,0.0,0.0
28/05/2023,02:50:17,0.002,0.0,0.0,0.0
28/05/2023,02:51:18,0.001,0.0,0.0,0.0
28/05/2023,02:52:17,0.001,0.0,0.0,0.0
28/05/2023,02:53:17,0.001,0.0,0.0,0.0
28/05/2023,02:54:17,0.000,0.0,0.0,0.0
28/05/2023,02:55:17,0.001,0.0,0.0,0.0
28/05/2023,02:56:17,0.000,0.0,0.0,0.0
28/05/2023,02:57:17,0.001,0.0,0.0,0.0
28/05/2023,02:58:17,-0.000,0.0,0.0,0.0
28/05/2023,02:59:17,0.001,0.0,0.0,0.0
28/05/2023,03:00:18,0.002,0.0,0.0,0.0
28/05/2023,03:01:17,0.000,0.0,0.0,0.0
28/05/2023,03:02:17,0.000,0.0,0.0,0.0
28/05/2023,03:03:17,0.001,0.0,0.0,0.0
28/05/2023,03:04:17,0.001,0.0,0.0,0.0
28/05/2023,03:05:18,0.001,0.0,0.0,0.0
28/05/2023,03:06:17,0.001,0.0,0.0,0.0
28/05/2023,03:07:18,0.001,0.0,0.0,0.0
28/05/2023,03:08:18,0.001,0.0,0.0,0.0
28/05/2023,03:09:17,0.001,0.0,0.0,0.0
28/05/2023,03:10:17,0.001,0.0,0.0,0.0
28/05/2023,03:11:18,0.001,0.0,0.0,0.0
28/05/2023,03:12:18,0.001,0.0,0.0,0.0
28/05/2023,03:13:17,0.001,0.0,0.0,0.0
28/05/2023,03:14:17,0.001,0.0,0.0,0.0
28/05/2023,03:15:17,0.001,0.0,0.0,0.0
28/05/2023,03:16:17,0.001,0.0,0.0,0.0
28/05/2023,03:17:17,0.001,0.0,0.0,0.0
28/05/2023,03:18:18,0.001,0.0,0.0,0.0
28/05/2023,03:19:18,0.001,0.0,0.0,0.0
28/05/2023,03:20:18,0.002,0.0,0.0,0.0
28/05/2023,03:21:17,0.001,0.0,0.0,0.0
28/05/2023,03:22:17,0.000,0.0,0.0,0.0
28/05/2023,03:23:17,0.002,0.0,0.0,0.0
28/05/2023,03:24:17,0.002,0.0,0.0,0.0
28/05/2023,03:25:17,0.001,0.0,0.0,0.0
28/05/2023,03:26:17,0.001,0.0,0.0,0.0
28/05/2023,03:27:17,0.001,0.0,0.0,0.0
28/05/2023,03:28:17,0.001,0.0,0.0,0.0
28/05/2023,03:29:17,0.001,0.0,0.0,0.0
28/05/2023,03:30:18,0.002,0.0,0.0,0.0
28/05/2023,03:31:18,0.000,0.0,0.0,0.0
28/05/2023,03:32:18,0.001,0.0,0.0,0.0
28/05/2023,03:33:18,0.001,0.0,0.0,0.0
28/05/2023,03:34:17,0.001,0.0,0.0,0.0
28/05/2023,03:35:17,0.001,0.0,0.0,0.0
28/05/2023,03:36:17,0.001,0.0,0.0,0.0
28/05/2023,03:37:17,0.001,0.0,0.0,0.0
28/05/2023,03:38:18,0.002,0.0,0.0,0.0
28/05/2023,03:39:18,0.002,0.0,0.0,0.0
28/05/2023,03:40:23,0.001,0.0,0.0,0.0
28/05/2023,03:41:18,0.001,0.0,0.0,0.0
28/05/2023,03:42:17,0.001,0.0,0.0,0.0
28/05/2023,03:43:17,0.002,0.0,0.0,0.0
28/05/2023,03:44:17,0.002,0.0,0.0,0.0
28/05/2023,03:45:17,0.002,0.0,0.0,0.0
28/05/2023,03:46:17,0.002,0.0,0.0,0.0
28/05/2023,03:47:18,0.002,0.0,0.0,0.0
28/05/2023,03:48:17,0.002,0.0,0.0,0.0
28/05/2023,03:49:17,0.002,0.0,0.0,0.0
28/05/2023,03:50:17,0.002,0.0,0.0,0.0
28/05/2023,03:51:18,0.002,0.0,0.0,0.0
28/05/2023,03:52:18,0.002,0.0,0.0,0.0
28/05/2023,03:53:18,0.002,0.0,0.0,0.0
28/05/2023,03:54:18,0.002,0.0,0.0,0.0
28/05/2023,03:55:17,0.002,0.0,0.0,0.0
28/05/2023,03:56:17,0.003,0.0,0.0,0.0
28/05/2023,03:57:17,0.003,0.0,0.0,0.0
28/05/2023,03:58:17,0.002,0.0,0.0,0.0
28/05/2023,03:59:18,0.003,0.0,0.0,0.0
28/05/2023,04:00:16,0.002,0.0,0.0,0.0
28/05/2023,04:01:17,0.003,0.0,0.0,0.0
28/05/2023,04:02:17,0.003,0.0,0.0,0.0
28/05/2023,04:03:17,0.004,0.0,0.0,0.0
28/05/2023,04:04:18,0.004,0.0,0.0,0.0
28/05/2023,04:05:18,0.004,0.0,0.0,0.0
28/05/2023,04:06:18,0.005,0.0,0.0,0.0
28/05/2023,04:07:17,0.004,0.0,0.0,0.0
28/05/2023,04:08:17,0.003,0.0,0.0,0.0
28/05/2023,04:09:17,0.006,0.0,0.0,0.0
28/05/2023,04:10:18,0.005,0.0,0.0,0.0
28/05/2023,04:11:18,0.005,0.0,0.0,0.0
28/05/2023,04:12:18,0.005,0.0,0.0,0.0
28/05/2023,04:13:18,0.007,0.0,0.0,0.0
28/05/2023,04:14:17,0.005,0.0,0.0,0.0
28/05/2023,04:15:18,0.005,0.0,0.0,0.0
28/05/2023,04:16:18,0.006,0.0,0.0,0.0
28/05/2023,04:17:17,0.006,0.0,0.0,0.0
28/05/2023,04:18:17,0.007,0.0,0.0,0.0
28/05/2023,04:19:17,0.007,0.0,0.001,0.001
28/05/2023,04:20:17,0.007,0.0,0.001,0.0
28/05/2023,04:21:17,0.007,0.0,0.001,0.0
28/05/2023,04:22:18,0.008,0.0,0.001,0.0
28/05/2023,04:23:18,0.007,0.0,0.001,0.0
28/05/2023,04:24:18,0.009,0.0,0.001,0.0
28/05/2023,04:25:18,0.009,0.0,0.001,0.0
28/05/2023,04:26:18,0.009,0.0,0.001,0.0
28/05/2023,04:27:17,0.009,0.0,0.002,0.001
28/05/2023,04:28:18,0.010,0.0,0.002,0.0
28/05/2023,04:29:19,0.011,0.0,0.002,0.0
28/05/2023,04:30:18,0.011,0.0,0.002,0.0
28/05/2023,04:31:17,0.011,0.0,0.002,0.0
28/05/2023,04:32:17,0.012,0.0,0.002,0.0
28/05/2023,04:33:17,0.012,0.0,0.003,0.001
28/05/2023,04:34:17,0.012,0.0,0.003,0.0
28/05/2023,04:35:18,0.012,0.0,0.003,0.0
28/05/2023,04:36:18,0.012,0.0,0.003,0.0
28/05/2023,04:37:17,0.013,0.0,0.003,0.0
28/05/2023,04:38:17,0.015,0.0,0.004,0.001
28/05/2023,04:39:17,0.014,0.0,0.004,0.0
28/05/2023,04:40:17,0.015,0.0,0.004,0.0
28/05/2023,04:41:17,0.015,0.0,0.004,0.0
28/05/2023,04:42:17,0.016,0.0,0.005,0.001
28/05/2023,04:43:17,0.015,0.0,0.005,0.0
28/05/2023,04:44:17,0.016,0.0,0.005,0.0
28/05/2023,04:45:17,0.017,0.0,0.006,0.001
28/05/2023,04:46:17,0.017,0.0,0.006,0.0
28/05/2023,04:47:17,0.019,0.0,0.006,0.0
28/05/2023,04:48:17,0.019,0.0,0.006,0.0
28/05/2023,04:49:18,0.021,0.0,0.007,0.001
28/05/2023,04:50:17,0.021,0.0,0.007,0.0
28/05/2023,04:51:17,0.021,0.0,0.007,0.0
28/05/2023,04:52:17,0.022,0.0,0.008,0.001
28/05/2023,04:53:18,0.022,0.0,0.008,0.0
28/05/2023,04:54:17,0.022,0.0,0.009,0.001
28/05/2023,04:55:17,0.024,0.0,0.009,0.0
28/05/2023,04:56:18,0.025,0.0,0.009,0.0
28/05/2023,04:57:18,0.026,0.0,0.01,0.001
28/05/2023,04:58:18,0.026,0.0,0.01,0.0
28/05/2023,04:59:17,0.028,0.0,0.011,0.001
28/05/2023,05:00:18,0.028,0.0,0.011,0.0
28/05/2023,05:01:18,0.028,0.0,0.012,0.001
28/05/2023,05:02:18,0.029,0.0,0.012,0.0
28/05/2023,05:03:17,0.029,0.0,0.013,0.001
28/05/2023,05:04:18,0.031,0.0,0.013,0.0
28/05/2023,05:05:17,0.031,0.0,0.014,0.001
28/05/2023,05:06:17,0.032,0.0,0.014,0.0
28/05/2023,05:07:17,0.034,0.0,0.015,0.001
28/05/2023,05:08:18,0.035,0.0,0.015,0.0
28/05/2023,05:09:18,0.035,0.0,0.016,0.001
28/05/2023,05:10:17,0.036,0.0,0.016,0.0
28/05/2023,05:11:17,0.038,0.0,0.017,0.001
28/05/2023,05:12:17,0.038,0.0,0.018,0.001
28/05/2023,05:13:17,0.038,0.0,0.018,0.0
28/05/2023,05:14:18,0.040,0.0,0.019,0.001
28/05/2023,05:15:18,0.042,0.0,0.02,0.001
28/05/2023,05:16:17,0.042,0.0,0.02,0.0
28/05/2023,05:17:17,0.043,0.0,0.021,0.001
28/05/2023,05:18:17,0.044,0.0,0.022,0.001
28/05/2023,05:19:18,0.045,0.0,0.023,0.001
28/05/2023,05:20:17,0.046,0.0,0.023,0.0
28/05/2023,05:21:18,0.048,0.0,0.024,0.001
28/05/2023,05:22:18,0.049,0.0,0.025,0.001
28/05/2023,05:23:18,0.050,0.0,0.026,0.001
28/05/2023,05:24:18,0.051,0.0,0.027,0.001
28/05/2023,05:25:17,0.052,0.0,0.027,0.0
28/05/2023,05:26:18,0.053,0.0,0.028,0.001
28/05/2023,05:27:18,0.054,0.0,0.029,0.001
28/05/2023,05:28:17,0.056,0.0,0.03,0.001
28/05/2023,05:29:17,0.057,0.0,0.031,0.001
28/05/2023,05:30:17,0.058,0.0,0.032,0.001
28/05/2023,05:31:18,0.059,0.0,0.033,0.001
28/05/2023,05:32:18,0.061,0.0,0.034,0.001
28/05/2023,05:33:18,0.062,0.0,0.035,0.001
28/05/2023,05:34:17,0.063,0.0,0.036,0.001
28/05/2023,05:35:17,0.064,0.0,0.037,0.001
28/05/2023,05:36:17,0.067,0.0,0.038,0.001
28/05/2023,05:37:17,0.067,0.0,0.039,0.001
28/05/2023,05:38:17,0.069,0.0,0.04,0.001
28/05/2023,05:39:18,0.070,0.0,0.042,0.002
28/05/2023,05:40:18,0.071,0.0,0.043,0.001
28/05/2023,05:41:17,0.073,0.0,0.044,0.001
28/05/2023,05:42:17,0.075,0.0,0.045,0.001
28/05/2023,05:43:19,0.075,0.0,0.046,0.001
28/05/2023,05:44:19,0.078,0.0,0.048,0.002
28/05/2023,05:45:18,0.079,0.0,0.049,0.001
28/05/2023,05:46:18,0.081,0.0,0.05,0.001
28/05/2023,05:47:17,0.082,0.0,0.052,0.002
28/05/2023,05:48:17,0.084,0.0,0.053,0.001
28/05/2023,05:49:18,0.087,0.0,0.055,0.002
28/05/2023,05:50:19,0.090,0.0,0.056,0.001
28/05/2023,05:51:18,0.091,0.0,0.058,0.002
28/05/2023,05:52:18,0.094,0.0,0.059,0.001
28/05/2023,05:53:18,0.095,0.0,0.061,0.002
28/05/2023,05:54:17,0.097,0.0,0.062,0.001
28/05/2023,05:55:17,0.099,0.0,0.064,0.002
28/05/2023,05:56:17,0.101,0.0,0.066,0.002
28/05/2023,05:57:18,0.103,0.0,0.067,0.001
28/05/2023,05:58:18,0.105,0.0,0.069,0.002
28/05/2023,05:59:18,0.106,0.0,0.071,0.002
28/05/2023,06:00:17,0.108,0.0,0.073,0.002
28/05/2023,06:01:17,0.109,0.0,0.074,0.001
28/05/2023,06:02:18,0.111,0.0,0.076,0.002
28/05/2023,06:03:18,0.114,0.0,0.078,0.002
28/05/2023,06:04:18,0.116,0.0,0.08,0.002
28/05/2023,06:05:18,0.117,0.0,0.082,0.002
28/05/2023,06:06:18,0.118,0.0,0.084,0.002
28/05/2023,06:07:18,0.120,0.0,0.086,0.002
28/05/2023,06:08:17,0.124,0.0,0.088,0.002
28/05/2023,06:09:17,0.127,0.0,0.09,0.002
28/05/2023,06:10:18,0.129,0.0,0.092,0.002
28/05/2023,06:11:18,0.130,0.0,0.094,0.002
28/05/2023,06:12:17,0.133,0.0,0.097,0.003
28/05/2023,06:13:17,0.137,0.0,0.099,0.002
28/05/2023,06:14:17,0.139,0.0,0.101,0.002
28/05/2023,06:15:17,0.146,0.0,0.103,0.002
28/05/2023,06:16:17,0.149,0.0,0.106,0.003
28/05/2023,06:17:18,0.153,0.0,0.108,0.002
28/05/2023,06:18:18,0.152,0.0,0.111,0.003
28/05/2023,06:19:17,0.153,0.0,0.114,0.003
28/05/2023,06:20:17,0.154,0.0,0.116,0.002
28/05/2023,06:21:18,0.158,0.0,0.119,0.003
28/05/2023,06:22:18,0.159,0.0,0.121,0.002
28/05/2023,06:23:18,0.164,0.0,0.124,0.003
28/05/2023,06:24:18,0.168,0.0,0.127,0.003
28/05/2023,06:25:18,0.175,0.0,0.13,0.003
28/05/2023,06:26:17,0.177,0.0,0.133,0.003
28/05/2023,06:27:18,0.181,0.0,0.136,0.003
28/05/2023,06:28:17,0.179,0.0,0.139,0.003
28/05/2023,06:29:18,0.182,0.0,0.142,0.003
28/05/2023,06:30:18,0.185,0.0,0.145,0.003
28/05/2023,06:31:18,0.193,0.0,0.148,0.003
28/05/2023,06:32:18,0.199,0.0,0.151,0.003
28/05/2023,06:33:18,0.202,0.0,0.154,0.003
28/05/2023,06:34:18,0.203,0.0,0.158,0.004
28/05/2023,06:35:18,0.202,0.0,0.161,0.003
28/05/2023,06:36:18,0.203,0.0,0.165,0.004
28/05/2023,06:37:17,0.205,0.0,0.168,0.003
28/05/2023,06:38:17,0.201,0.0,0.171,0.003
28/05/2023,06:39:18,0.210,0.0,0.175,0.004
28/05/2023,06:40:18,0.213,0.0,0.178,0.003
28/05/2023,06:41:18,0.218,1.0,0.182,0.004
28/05/2023,06:42:18,0.218,1.0,0.185,0.003
28/05/2023,06:43:17,0.224,1.0,0.189,0.004
28/05/2023,06:44:18,0.231,1.0,0.193,0.004
28/05/2023,06:45:18,0.235,1.0,0.197,0.004
28/05/2023,06:46:17,0.236,1.0,0.201,0.004
28/05/2023,06:47:18,0.236,1.0,0.205,0.004
28/05/2023,06:48:18,0.239,1.0,0.209,0.004
28/05/2023,06:49:17,0.246,1.0,0.213,0.004
28/05/2023,06:50:18,0.256,1.0,0.217,0.004
28/05/2023,06:51:18,0.266,1.0,0.221,0.004
28/05/2023,06:52:19,0.267,1.0,0.226,0.005
28/05/2023,06:53:18,0.279,1.0,0.23,0.004
28/05/2023,06:54:17,0.295,1.0,0.235,0.005
28/05/2023,06:55:17,0.303,1.0,0.24,0.005
28/05/2023,06:56:18,0.308,1.0,0.245,0.005
28/05/2023,06:57:18,0.313,1.0,0.25,0.005
28/05/2023,06:58:18,0.321,1.0,0.256,0.006
28/05/2023,06:59:18,0.326,1.0,0.261,0.005
28/05/2023,07:00:18,0.331,1.0,0.266,0.005
28/05/2023,07:01:17,0.327,1.0,0.272,0.006
28/05/2023,07:02:18,0.330,1.0,0.277,0.005
28/05/2023,07:03:18,0.342,1.0,0.283,0.006
28/05/2023,07:04:18,0.348,1.0,0.289,0.006
28/05/2023,07:05:18,0.352,1.0,0.295,0.006
28/05/2023,07:06:18,0.359,1.0,0.301,0.006
28/05/2023,07:07:18,0.357,1.0,0.307,0.006
28/05/2023,07:08:17,0.364,1.0,0.312,0.005
28/05/2023,07:09:18,0.372,1.0,0.319,0.007
28/05/2023,07:10:18,0.376,1.0,0.325,0.006
28/05/2023,07:11:18,0.380,1.0,0.331,0.006
28/05/2023,07:12:17,0.380,1.0,0.338,0.007
28/05/2023,07:13:17,0.387,1.0,0.344,0.006
28/05/2023,07:14:18,0.390,1.0,0.35,0.006
28/05/2023,07:15:18,0.392,1.0,0.357,0.007
28/05/2023,07:16:17,0.395,1.0,0.363,0.006
28/05/2023,07:17:17,0.401,1.0,0.37,0.007
28/05/2023,07:18:17,0.406,1.0,0.377,0.007
28/05/2023,07:19:19,0.410,1.0,0.384,0.007
28/05/2023,07:20:18,0.417,1.0,0.391,0.007
28/05/2023,07:21:17,0.419,1.0,0.397,0.006
28/05/2023,07:22:17,0.421,1.0,0.404,0.007
28/05/2023,07:23:17,0.420,1.0,0.411,0.007
28/05/2023,07:24:15,0.418,1.0,0.418,0.007
28/05/2023,07:25:17,0.416,1.0,0.425,0.007
28/05/2023,07:26:18,0.421,1.0,0.432,0.007
28/05/2023,07:27:18,0.433,1.0,0.44,0.008
28/05/2023,07:28:17,0.434,1.0,0.447,0.007
28/05/2023,07:29:18,0.445,1.0,0.454,0.007
28/05/2023,07:30:17,0.454,1.0,0.462,0.008
28/05/2023,07:31:18,0.448,1.0,0.469,0.007
28/05/2023,07:32:17,0.463,1.0,0.477,0.008
28/05/2023,07:33:18,0.470,1.0,0.484,0.007
28/05/2023,07:34:18,0.488,1.0,0.492,0.008
28/05/2023,07:35:18,0.499,1.0,0.501,0.009
28/05/2023,07:36:17,0.502,1.0,0.509,0.008
28/05/2023,07:37:17,0.517,1.0,0.518,0.009
28/05/2023,07:38:18,0.517,1.0,0.526,0.008
28/05/2023,07:39:18,0.523,1.0,0.535,0.009
28/05/2023,07:40:18,0.543,1.0,0.544,0.009
28/05/2023,07:41:18,0.554,1.0,0.553,0.009
28/05/2023,07:42:18,0.568,1.0,0.562,0.009
28/05/2023,07:43:18,0.576,1.0,0.572,0.01
28/05/2023,07:44:18,0.582,1.0,0.581,0.009
28/05/2023,07:45:18,0.585,1.0,0.591,0.01
28/05/2023,07:46:18,0.590,1.0,0.601,0.01
28/05/2023,07:47:18,0.585,1.0,0.611,0.01
28/05/2023,07:48:18,0.580,1.0,0.62,0.009
28/05/2023,07:49:17,0.579,1.0,0.63,0.01
28/05/2023,07:50:18,0.584,1.0,0.64,0.01
28/05/2023,07:51:18,0.592,1.0,0.65,0.01
28/05/2023,07:52:18,0.579,1.0,0.659,0.009
28/05/2023,07:53:17,0.609,1.0,0.669,0.01
28/05/2023,07:54:18,0.623,1.0,0.68,0.011
28/05/2023,07:55:18,0.627,1.0,0.69,0.01
28/05/2023,07:56:18,0.633,1.0,0.7,0.01
28/05/2023,07:57:17,0.645,1.0,0.711,0.011
28/05/2023,07:58:18,0.654,2.0,0.722,0.011
28/05/2023,07:59:18,0.659,2.0,0.733,0.011
28/05/2023,08:00:18,0.668,2.0,0.744,0.011
28/05/2023,08:01:18,0.678,2.0,0.755,0.011
28/05/2023,08:02:18,0.683,2.0,0.766,0.011
28/05/2023,08:03:18,0.688,2.0,0.778,0.012
28/05/2023,08:04:18,0.700,2.0,0.789,0.011
28/05/2023,08:05:18,0.703,2.0,0.801,0.012
28/05/2023,08:06:18,0.706,2.0,0.813,0.012
28/05/2023,08:07:18,0.710,2.0,0.825,0.012
28/05/2023,08:08:17,0.707,2.0,0.836,0.011
28/05/2023,08:09:19,0.708,2.0,0.848,0.012
28/05/2023,08:10:19,0.709,2.0,0.86,0.012
28/05/2023,08:11:18,0.707,2.0,0.872,0.012
28/05/2023,08:12:17,0.726,2.0,0.884,0.012
28/05/2023,08:13:18,0.741,2.0,0.896,0.012
28/05/2023,08:14:18,0.745,2.0,0.908,0.012
28/05/2023,08:15:19,0.754,2.0,0.921,0.013
28/05/2023,08:16:19,0.754,2.0,0.933,0.012
28/05/2023,08:17:18,0.771,2.0,0.946,0.013
28/05/2023,08:18:18,0.777,2.0,0.959,0.013
28/05/2023,08:19:18,0.789,2.0,0.972,0.013
28/05/2023,08:20:18,0.793,2.0,0.985,0.013
28/05/2023,08:21:18,0.808,2.0,0.999,0.014
28/05/2023,08:22:18,0.840,2.0,1.012,0.013
28/05/2023,08:23:18,0.856,2.0,1.027,0.015
28/05/2023,08:24:18,0.872,2.0,1.041,0.014
28/05/2023,08:25:18,0.872,2.0,1.055,0.014
28/05/2023,08:26:18,0.875,2.0,1.07,0.015
28/05/2023,08:27:18,0.877,2.0,1.085,0.015
28/05/2023,08:28:18,0.887,2.0,1.099,0.014
28/05/2023,08:29:18,0.889,2.0,1.114,0.015
28/05/2023,08:30:18,0.920,2.0,1.129,0.015
28/05/2023,08:31:18,0.930,2.0,1.145,0.016
28/05/2023,08:32:18,0.932,2.0,1.16,0.015
28/05/2023,08:33:18,0.942,2.0,1.176,0.016
28/05/2023,08:34:18,0.953,2.0,1.191,0.015
28/05/2023,08:35:18,0.954,2.0,1.207,0.016
28/05/2023,08:36:19,0.963,2.0,1.223,0.016
28/05/2023,08:37:18,0.975,2.0,1.24,0.017
28/05/2023,08:38:18,0.972,2.0,1.256,0.016
28/05/2023,08:39:18,0.978,2.0,1.272,0.016
28/05/2023,08:40:18,0.990,2.0,1.289,0.017
28/05/2023,08:41:18,0.990,2.0,1.305,0.016
28/05/2023,08:42:17,0.981,2.0,1.321,0.016
28/05/2023,08:43:17,0.992,2.0,1.338,0.017
28/05/2023,08:44:18,1.021,2.0,1.355,0.017
28/05/2023,08:45:18,1.027,2.0,1.372,0.017
28/05/2023,08:46:18,1.038,2.0,1.389,0.017
28/05/2023,08:47:18,1.031,2.0,1.406,0.017
28/05/2023,08:48:18,1.032,2.0,1.423,0.017
28/05/2023,08:49:18,1.037,2.0,1.441,0.018
28/05/2023,08:50:18,1.042,2.0,1.458,0.017
28/05/2023,08:51:18,1.036,2.0,1.475,0.017
28/05/2023,08:52:18,1.062,2.0,1.493,0.018
28/05/2023,08:53:18,1.055,2.0,1.51,0.017
28/05/2023,08:54:18,1.077,2.0,1.528,0.018
28/05/2023,08:55:18,1.101,3.0,1.546,0.018
28/05/2023,08:56:18,1.105,3.0,1.565,0.019
28/05/2023,08:57:18,1.112,3.0,1.583,0.018
28/05/2023,08:58:18,1.117,3.0,1.602,0.019
28/05/2023,08:59:18,1.125,3.0,1.62,0.018
28/05/2023,09:00:18,1.133,3.0,1.639,0.019
28/05/2023,09:01:18,1.151,3.0,1.658,0.019
28/05/2023,09:02:18,1.166,3.0,1.677,0.019
28/05/2023,09:03:18,1.183,3.0,1.697,0.02
28/05/2023,09:04:18,1.188,3.0,1.717,0.02
28/05/2023,09:05:17,1.194,3.0,1.737,0.02
28/05/2023,09:06:17,1.198,3.0,1.757,0.02
28/05/2023,09:07:17,1.174,3.0,1.776,0.019
28/05/2023,09:08:18,1.199,3.0,1.796,0.02
28/05/2023,09:09:18,1.162,3.0,1.816,0.02
28/05/2023,09:10:18,1.203,3.0,1.835,0.019
28/05/2023,09:11:18,1.240,3.0,1.856,0.021
28/05/2023,09:12:18,1.228,3.0,1.876,0.02
28/05/2023,09:13:18,1.203,3.0,1.897,0.021
28/05/2023,09:14:18,1.170,3.0,1.916,0.019
28/05/2023,09:15:19,1.162,3.0,1.936,0.02
28/05/2023,09:16:18,1.148,3.0,1.955,0.019
28/05/2023,09:17:18,1.168,3.0,1.974,0.019
28/05/2023,09:18:18,1.226,3.0,1.994,0.02
28/05/2023,09:19:18,1.241,3.0,2.015,0.021
28/05/2023,09:20:18,1.236,3.0,2.035,0.02
28/05/2023,09:21:18,1.233,3.0,2.056,0.021
28/05/2023,09:22:18,1.243,3.0,2.076,0.02
28/05/2023,09:23:18,1.231,3.0,2.097,0.021
28/05/2023,09:24:18,1.241,3.0,2.118,0.021
28/05/2023,09:25:18,1.253,3.0,2.138,0.02
28/05/2023,09:26:18,1.277,3.0,2.16,0.022
28/05/2023,09:27:18,1.282,3.0,2.181,0.021
28/05/2023,09:28:18,1.307,3.0,2.203,0.022
28/05/2023,09:29:18,1.322,3.0,2.224,0.021
28/05/2023,09:30:18,1.317,3.0,2.246,0.022
28/05/2023,09:31:18,1.326,3.0,2.268,0.022
28/05/2023,09:32:17,1.337,3.0,2.29,0.022
28/05/2023,09:33:18,1.351,3.0,2.313,0.023
28/05/2023,09:34:17,1.360,3.0,2.336,0.023
28/05/2023,09:35:17,1.359,3.0,2.359,0.023
28/05/2023,09:36:18,1.383,3.0,2.382,0.023
28/05/2023,09:37:18,1.380,3.0,2.405,0.023
28/05/2023,09:38:17,1.417,3.0,2.428,0.023
28/05/2023,09:39:18,1.422,3.0,2.452,0.024
28/05/2023,09:40:18,1.427,3.0,2.475,0.023
28/05/2023,09:41:18,1.425,3.0,2.499,0.024
28/05/2023,09:42:18,1.442,3.0,2.523,0.024
28/05/2023,09:43:18,1.461,3.0,2.547,0.024
28/05/2023,09:44:18,1.453,3.0,2.571,0.024
28/05/2023,09:45:18,1.456,3.0,2.596,0.025
28/05/2023,09:46:18,1.442,3.0,2.62,0.024
28/05/2023,09:47:18,1.408,3.0,2.643,0.023
28/05/2023,09:48:18,1.434,3.0,2.667,0.024
28/05/2023,09:49:18,1.480,3.0,2.691,0.024
28/05/2023,09:50:18,1.521,3.0,2.716,0.025
28/05/2023,09:51:18,1.535,4.0,2.742,0.026
28/05/2023,09:52:18,1.553,4.0,2.767,0.025
28/05/2023,09:53:18,1.558,4.0,2.793,0.026
28/05/2023,09:54:18,1.579,4.0,2.82,0.027
28/05/2023,09:55:18,1.573,4.0,2.846,0.026
28/05/2023,09:56:18,1.581,4.0,2.872,0.026
28/05/2023,09:57:18,1.577,4.0,2.898,0.026